Content
SEND FEEDBACK

Daily
Averages
Monthly
Summary
United States of America

HINGHAM, MASSACHUSETTS


Home > North America > United States > Massachusetts
Elevation: 3 feet     Latitude: 42 14N     Longitude: 070 55W

WEATHER
 
SELECT A DAY
Number of Records: 133,112;   Date Range: 10/15/98 - 8/28/14
 
SHARE

PRINT THIS DATA

[ ← Previous Day ]
WEATHER ALMANAC - MAY 1, 2013
[ Next Day → ]
[ °C ]   °F
Weather ElementAverageHighLow
Temperature57 °F66.9 °F (1:54 pm)46 °F (4:54 am)
Dewpoint28.3 °F41 °F (11:54 pm)21.9 °F (3:54 am)
Humidity35 %66 % (11:54 pm)24 % (1:54 pm)
Barometer30.47 in30.51 in (10:54 am)30.40 in (1:54 am)
Wind Speed6.9 mph11.5 mph (4:54 pm)
Wind Gust18.4 mph (12:54 pm)
Weather ElementAverage
Wind DirectionSE (130.4 °)

Weather ElementTotal
Precipitation---
Heating Degree Days8.6 (Base 65)
Growing Degree Days6.5 (Base 50)
Averaged from 23 records on May 1, 2013
WEATHER CONDITIONS BREAKOUT
WIND DIRECTION BREAKOUT
WEATHER BY HOUR - MAY 1, 2013
[ °C ]   °F
Local TimeTemperatureDewpointHumidityBarometerVisibilityWind DirectionWind SpeedGust SpeedPrecipitationEventsConditions
1:54 AM46.9 °F26.1 °F44 %30.40 inSE (140°)6.9 mph
2:54 AM46.9 °F30.0 °F52 %30.41 inSSE (150°)5.8 mph
3:54 AM48.9 °F21.9 °F35 %30.41 inSE (140°)4.6 mph
4:54 AM46.0 °F28.0 °F50 %30.43 inCalm
5:54 AM46.9 °F23.0 °F39 %30.44 inNW (320°)4.6 mph
6:54 AM48.9 °F21.9 °F35 %30.45 inNNW (340°)5.8 mph
7:54 AM54.0 °F24.1 °F31 %30.46 inCalm
8:54 AM57.9 °F28.0 °F32 %30.48 inNorth (360°)3.5 mph
9:54 AM62.1 °F26.1 °F25 %30.49 inVariable5.8 mph
10:54 AM63.0 °F26.1 °F25 %30.51 inNNE (30°)8.1 mph
11:54 AM64.9 °F28.9 °F26 %30.50 inVariable6.9 mph
12:54 PM64.0 °F28.9 °F27 %30.49 inENE (60°)8.1 mph18.4 mph
1:54 PM66.9 °F28.9 °F24 %30.48 inEast (90°)8.1 mph
2:54 PM66.9 °F30.0 °F25 %30.48 inENE (70°)9.2 mph
3:54 PM64.9 °F30.0 °F27 %30.48 inESE (120°)10.4 mph
4:54 PM64.9 °F28.0 °F25 %30.47 inESE (110°)11.5 mph
5:54 PM64.0 °F28.0 °F26 %30.48 inEast (90°)9.2 mph
6:54 PM61.0 °F28.0 °F29 %30.48 inEast (100°)8.1 mph
7:54 PM57.9 °F30.9 °F36 %30.48 inSSE (150°)4.6 mph
8:54 PM55.9 °F30.9 °F39 %30.49 inSSE (150°)6.9 mph
9:54 PM54.0 °F30.0 °F40 %30.48 inSSE (160°)9.2 mph
10:54 PM52.0 °F32.0 °F47 %30.48 inSouth (190°)10.4 mph
11:54 PM52.0 °F41.0 °F66 %30.48 inSW (230°)10.4 mph
Hourly data recorded from KMQE, located miles away from Hingham, Massachusetts







STORIES FROM OUR PARTNERS